Location: Jaite
(41.2884°N, 81.5737°W)
Time: 02:28:10
(UTC+00:00)

CENTAUR R/B - Pass Details

Date: 18 January 2020
Orbit: 766 x 1422 km, 63.5° (Epoch: 07 February)

Event Time Altitude Azimuth Distance (km) Brightness Sun altitude
Exits shadow 11:25:05 - 330° (NNW) 3,528 5.0 -15.5°
Reaches altitude 10° 11:25:59 10° 332° (NNW) 3,244 4.8 -15.3°
Maximum altitude 11:33:49 52° 48° (NE) 1,648 3.9 -13.9°
Drops below altitude 10° 11:42:17 10° 123° (ESE) 3,511 6.7 -12.4°
Sets 11:45:23 0° 128° (SE) 4,489 7.4 -11.8°
